When you browse on this site, cookies collect data to enhance your experience and personalize the content and advertising you see.
Visit our Privacy Policy to learn more. By continuing to use the site, you agree to this use of cookies and data.
  • In Österreich
  • Länderverzeichnis
  • Für 7 Tage
  • Wassertemperatur
  • Satellitenkarten
  • Wetterkarte
  • News
  • Widgets
  • user-avatar
    Anmelden

    Stündliche Wetter Rakowo

    Heute, 19 Juli, Freitag

    Zeit Temperatur Niederschläge Wind Luftdruck Luftfeuchtigkeit
    00:00 +19°C° 0 mm 1 m/S 757 mmHg 65%
    01:00 +18°C° 0 mm 2 m/S 757 mmHg 65%
    02:00 +18°C° 0 mm 2 m/S 756 mmHg 64%
    03:00 +19°C° 0 mm 2 m/S 756 mmHg 63%
    04:00 +19°C° 0 mm 2 m/S 756 mmHg 61%
    05:00 +20°C° 0 mm 2 m/S 756 mmHg 63%
    06:00 +20°C° 0 mm 2 m/S 757 mmHg 65%
    07:00 +21°C° 0 mm 2 m/S 757 mmHg 66%
    08:00 +22°C° 0 mm 3 m/S 757 mmHg 61%
    09:00 +25°C° 0 mm 4 m/S 757 mmHg 56%
    10:00 +27°C° 0 mm 4 m/S 757 mmHg 51%
    11:00 +27°C° 0 mm 4 m/S 757 mmHg 48%
    12:00 +28°C° 0 mm 3 m/S 757 mmHg 46%
    13:00 +29°C° 0 mm 3 m/S 756 mmHg 44%
    14:00 +27°C° 0.4 mm 3 m/S 757 mmHg 52%
    15:00 +26°C° 0.4 mm 4 m/S 757 mmHg 59%
    16:00 +25°C° 0.4 mm 4 m/S 757 mmHg 67%
    17:00 +24°C° 0.8 mm 3 m/S 757 mmHg 72%
    18:00 +23°C° 0.8 mm 2 m/S 757 mmHg 78%
    19:00 +22°C° 0.8 mm 1 m/S 757 mmHg 83%
    20:00 +21°C° 0.2 mm 1 m/S 757 mmHg 85%
    21:00 +20°C° 0.2 mm 1 m/S 758 mmHg 88%
    22:00 +18°C° 0.2 mm 2 m/S 758 mmHg 90%
    23:00 +18°C° 0 mm 2 m/S 758 mmHg 91%

    Morgen, 20 Juli, Samstag

    Zeit Temperatur Niederschläge Wind Luftdruck Luftfeuchtigkeit
    00:00 +18°C° 0 mm 2 m/S 758 mmHg 92%
    01:00 +17°C° 0 mm 2 m/S 758 mmHg 93%
    02:00 +18°C° 0 mm 1 m/S 758 mmHg 94%
    03:00 +18°C° 0 mm 1 m/S 759 mmHg 95%
    04:00 +16°C° 0 mm 1 m/S 759 mmHg 96%
    05:00 +18°C° 0 mm 1 m/S 759 mmHg 91%
    06:00 +20°C° 0 mm 1 m/S 759 mmHg 86%
    07:00 +21°C° 0 mm 1 m/S 759 mmHg 80%
    08:00 +23°C° 0 mm 1 m/S 759 mmHg 71%
    09:00 +25°C° 0 mm 1 m/S 759 mmHg 62%
    10:00 +26°C° 0 mm 1 m/S 759 mmHg 52%
    11:00 +27°C° 0 mm 1 m/S 759 mmHg 49%
    12:00 +28°C° 0 mm 2 m/S 759 mmHg 46%
    13:00 +28°C° 0 mm 2 m/S 759 mmHg 42%
    14:00 +29°C° 0 mm 2 m/S 759 mmHg 42%
    15:00 +29°C° 0 mm 2 m/S 758 mmHg 41%
    16:00 +30°C° 0 mm 2 m/S 758 mmHg 40%
    17:00 +29°C° 0 mm 2 m/S 758 mmHg 47%
    18:00 +28°C° 0 mm 1 m/S 758 mmHg 53%
    19:00 +26°C° 0 mm 1 m/S 758 mmHg 59%
    20:00 +25°C° 0.3 mm 1 m/S 758 mmHg 65%
    21:00 +24°C° 0.3 mm 2 m/S 758 mmHg 70%
    22:00 +21°C° 0.3 mm 2 m/S 758 mmHg 75%
    23:00 +21°C° 0.4 mm 2 m/S 758 mmHg 80%

    übermorgen, 21 Juli, Sonntag

    Zeit Temperatur Niederschläge Wind Luftdruck Luftfeuchtigkeit
    00:00 +20°C° 0.4 mm 2 m/S 758 mmHg 84%
    01:00 +21°C° 0.4 mm 1 m/S 758 mmHg 88%
    02:00 +21°C° 0.4 mm 1 m/S 758 mmHg 89%
    03:00 +21°C° 0.4 mm 1 m/S 757 mmHg 89%
    04:00 +21°C° 0.4 mm 1 m/S 757 mmHg 89%
    05:00 +21°C° 0.8 mm 1 m/S 757 mmHg 86%
    06:00 +22°C° 0.8 mm 1 m/S 758 mmHg 84%
    07:00 +23°C° 0.8 mm 1 m/S 758 mmHg 81%
    08:00 +24°C° 0.8 mm 2 m/S 758 mmHg 78%
    09:00 +25°C° 0.8 mm 3 m/S 758 mmHg 75%
    10:00 +27°C° 0.8 mm 4 m/S 758 mmHg 72%
    11:00 +27°C° 0.3 mm 4 m/S 759 mmHg 65%
    12:00 +28°C° 0.3 mm 5 m/S 759 mmHg 59%
    13:00 +29°C° 0.3 mm 5 m/S 759 mmHg 52%
    14:00 +28°C° 0.3 mm 5 m/S 759 mmHg 54%
    15:00 +28°C° 0.3 mm 5 m/S 759 mmHg 56%
    16:00 +27°C° 0.3 mm 5 m/S 760 mmHg 58%
    17:00 +26°C° 0.1 mm 4 m/S 760 mmHg 62%
    18:00 +25°C° 0.1 mm 4 m/S 760 mmHg 66%
    19:00 +24°C° 0.1 mm 3 m/S 760 mmHg 70%
    20:00 +22°C° 0 mm 3 m/S 761 mmHg 75%
    21:00 +21°C° 0 mm 2 m/S 762 mmHg 81%
    22:00 +19°C° 0 mm 2 m/S 762 mmHg 86%
    23:00 +19°C° 0 mm 2 m/S 762 mmHg 87%

    22 Juli, Montag

    Zeit Temperatur Niederschläge Wind Luftdruck Luftfeuchtigkeit
    00:00 +18°C° 0 mm 2 m/S 763 mmHg 88%
    01:00 +18°C° 0 mm 3 m/S 763 mmHg 88%
    02:00 +17°C° 0 mm 3 m/S 763 mmHg 90%
    03:00 +17°C° 0 mm 3 m/S 763 mmHg 91%
    04:00 +16°C° 0 mm 3 m/S 763 mmHg 93%
    05:00 +17°C° 0 mm 3 m/S 764 mmHg 89%
    06:00 +18°C° 0 mm 3 m/S 764 mmHg 85%
    07:00 +18°C° 0 mm 3 m/S 764 mmHg 82%
    08:00 +20°C° 0 mm 3 m/S 764 mmHg 75%
    09:00 +21°C° 0 mm 4 m/S 765 mmHg 69%
    10:00 +22°C° 0 mm 4 m/S 765 mmHg 63%
    11:00 +23°C° 0 mm 4 m/S 765 mmHg 59%
    12:00 +25°C° 0 mm 4 m/S 765 mmHg 55%
    13:00 +26°C° 0 mm 4 m/S 765 mmHg 51%
    14:00 +26°C° 0 mm 4 m/S 765 mmHg 50%
    15:00 +26°C° 0 mm 4 m/S 765 mmHg 48%
    16:00 +27°C° 0 mm 3 m/S 765 mmHg 47%
    17:00 +26°C° 0 mm 3 m/S 765 mmHg 53%
    18:00 +24°C° 0 mm 2 m/S 765 mmHg 59%
    19:00 +23°C° 0 mm 2 m/S 765 mmHg 64%
    20:00 +21°C° 0 mm 2 m/S 765 mmHg 67%
    21:00 +21°C° 0 mm 1 m/S 765 mmHg 71%
    22:00 +20°C° 0 mm 1 m/S 766 mmHg 74%
    23:00 +20°C° 0 mm 1 m/S 766 mmHg 76%

    23 Juli, Dienstag

    Zeit Temperatur Niederschläge Wind Luftdruck Luftfeuchtigkeit
    00:00 +17°C° 0 mm 0 m/S 766 mmHg 79%
    01:00 +17°C° 0 mm 0 m/S 765 mmHg 82%
    02:00 +17°C° 0 mm 0 m/S 765 mmHg 80%
    03:00 +19°C° 0 mm 1 m/S 765 mmHg 79%
    04:00 +19°C° 0 mm 1 m/S 765 mmHg 78%
    05:00 +20°C° 0 mm 1 m/S 765 mmHg 76%
    06:00 +19°C° 0 mm 2 m/S 765 mmHg 74%
    07:00 +20°C° 0 mm 2 m/S 765 mmHg 72%
    08:00 +21°C° 0 mm 2 m/S 765 mmHg 67%
    09:00 +23°C° 0 mm 2 m/S 765 mmHg 63%
    10:00 +24°C° 0 mm 3 m/S 765 mmHg 58%
    11:00 +26°C° 0 mm 3 m/S 765 mmHg 55%
    12:00 +27°C° 0 mm 3 m/S 764 mmHg 51%
    13:00 +29°C° 0 mm 3 m/S 764 mmHg 48%
    14:00 +29°C° 0 mm 3 m/S 764 mmHg 49%
    15:00 +29°C° 0 mm 3 m/S 764 mmHg 49%
    16:00 +29°C° 0 mm 3 m/S 763 mmHg 50%
    17:00 +28°C° 0 mm 3 m/S 763 mmHg 55%
    18:00 +27°C° 0 mm 2 m/S 763 mmHg 61%
    19:00 +26°C° 0 mm 1 m/S 763 mmHg 66%
    20:00 +25°C° 0 mm 2 m/S 763 mmHg 71%
    21:00 +24°C° 0 mm 2 m/S 763 mmHg 75%
    22:00 +21°C° 0 mm 2 m/S 763 mmHg 80%
    23:00 +22°C° 0 mm 1 m/S 763 mmHg 82%

    24 Juli, Mittwoch

    Zeit Temperatur Niederschläge Wind Luftdruck Luftfeuchtigkeit
    00:00 +21°C° 0 mm 1 m/S 763 mmHg 84%
    01:00 +20°C° 0 mm 1 m/S 763 mmHg 86%
    02:00 +20°C° 0 mm 1 m/S 763 mmHg 87%
    03:00 +20°C° 0 mm 1 m/S 763 mmHg 88%
    04:00 +19°C° 0 mm 1 m/S 763 mmHg 89%
    05:00 +21°C° 0 mm 1 m/S 763 mmHg 83%
    06:00 +22°C° 0 mm 1 m/S 763 mmHg 78%
    07:00 +23°C° 0 mm 1 m/S 763 mmHg 72%
    08:00 +25°C° 0 mm 1 m/S 763 mmHg 66%
    09:00 +27°C° 0 mm 1 m/S 763 mmHg 60%
    10:00 +29°C° 0 mm 1 m/S 763 mmHg 54%
    11:00 +29°C° 0 mm 1 m/S 763 mmHg 51%
    12:00 +30°C° 0 mm 1 m/S 763 mmHg 48%
    13:00 +31°C° 0 mm 1 m/S 762 mmHg 45%
    14:00 +31°C° 0 mm 1 m/S 762 mmHg 45%
    15:00 +31°C° 0 mm 2 m/S 762 mmHg 45%
    16:00 +31°C° 0 mm 2 m/S 762 mmHg 45%
    17:00 +30°C° 0 mm 2 m/S 762 mmHg 51%
    18:00 +29°C° 0 mm 2 m/S 762 mmHg 57%
    19:00 +28°C° 0 mm 2 m/S 762 mmHg 63%
    20:00 +26°C° 0 mm 2 m/S 762 mmHg 67%
    21:00 +25°C° 0 mm 2 m/S 762 mmHg 71%
    22:00 +24°C° 0 mm 2 m/S 762 mmHg 75%
    23:00 +23°C° 0 mm 2 m/S 762 mmHg 76%
    Mehr zeigen